Location: Arleux
(50.3632°N, 2.8721°E)
Time: 05:36:03
(UTC+00:00)

Cosmos 1500 - Pass Details

Date: 15 December 2019
Orbit: 499 x 520 km, 82.5° (Epoch: 24 January)

Event Time Altitude Azimuth Distance (km) Brightness Sun altitude
Rises 06:33:42 0° 223° (SW) 2,630 6.6 -10.2°
Reaches altitude 10° 06:36:11 10° 239° (WSW) 1,745 5.6 -9.8°
Maximum altitude 06:39:13 22° 291° (WNW) 1,168 4.4 -9.4°
Drops below altitude 10° 06:42:15 10° 344° (NNW) 1,747 5.5 -8.9°
Sets 06:44:45 0° 360° (N) 2,634 6.5 -8.6°
